Tracking 18840 objects as of 19-November-2017
HD Live streaming from Space Station
objects crossing your sky now

NOAA 2 (ITOS-D)

Track NOAA 2 (ITOS-D) now!
10-day predictions
NOAA 2 (ITOS-D) is classified as:


NORAD ID: 6235
Int'l Code: 1972-082A
Perigee: 1,455.3 km
Apogee: 1,462.1 km
Inclination: 101.7 °
Period: 114.9 minutes
Semi major axis: 7829 km
RCS: 2.925 m2 (large)
Launch date: October 15, 1972
Source: United States (US)
Launch site: AIR FORCE WESTERN TEST RANGE (AFWTR)
aabbcc
Your satellite tracking list
Your tracking list is empty




NASA's NSSDC Master Catalog

Two Line Element Set (TLE):
1 06235U 72082A   17323.53443354 -.00000042  00000-0  17775-4 0  9990
2 06235 101.7059 286.2121 0004326  47.1000  61.6732 12.53099472 62904
Source of the keplerian elements: AFSPC